TimeMST,TemperatureF,Dew PointF,Humidity,Sea Level PressureIn,VisibilityMPH,Wind Direction,Wind SpeedMPH,Gust SpeedMPH,PrecipitationIn,Events,Conditions,WindDirDegrees,DateUTC
12:53 AM,30.0,26.1,85,30.14,10.0,Calm,Calm,-,N/A,,Scattered Clouds,0,2013-02-07 07:53:00
1:53 AM,28.0,24.1,85,30.17,10.0,WSW,9.2,-,N/A,,Clear,250,2013-02-07 08:53:00
2:53 AM,27.0,21.9,81,30.17,10.0,WSW,8.1,-,N/A,,Partly Cloudy,250,2013-02-07 09:53:00
3:53 AM,26.1,21.0,81,30.17,10.0,West,3.5,-,N/A,,Clear,260,2013-02-07 10:53:00
4:53 AM,26.1,19.9,78,30.18,10.0,WSW,8.1,-,N/A,,Clear,240,2013-02-07 11:53:00
5:53 AM,25.0,19.9,81,30.19,10.0,WSW,9.2,-,N/A,,Clear,240,2013-02-07 12:53:00
6:53 AM,25.0,19.9,81,30.21,10.0,Variable,3.5,-,N/A,,Clear,0,2013-02-07 13:53:00
7:53 AM,28.9,21.9,75,30.23,10.0,SW,5.8,-,N/A,,Clear,230,2013-02-07 14:53:00
8:53 AM,34.0,27.0,75,30.23,10.0,WSW,5.8,-,N/A,,Clear,240,2013-02-07 15:53:00
9:53 AM,42.1,26.1,53,30.21,10.0,WNW,12.7,-,N/A,,Clear,300,2013-02-07 16:53:00
10:53 AM,46.0,23.0,40,30.20,10.0,WNW,13.8,-,N/A,,Clear,300,2013-02-07 17:53:00
11:53 AM,48.0,21.9,36,30.18,10.0,WNW,10.4,-,N/A,,Clear,300,2013-02-07 18:53:00
12:53 PM,48.0,19.0,32,30.16,10.0,NNW,5.8,-,N/A,,Clear,330,2013-02-07 19:53:00
1:53 PM,48.9,17.1,28,30.14,10.0,Variable,3.5,-,N/A,,Clear,0,2013-02-07 20:53:00
2:53 PM,50.0,17.1,27,30.13,10.0,SSW,5.8,-,N/A,,Clear,200,2013-02-07 21:53:00
3:53 PM,48.0,17.1,29,30.12,10.0,SE,4.6,-,N/A,,Clear,130,2013-02-07 22:53:00
4:53 PM,41.0,23.0,49,30.14,10.0,ESE,4.6,-,N/A,,Clear,120,2013-02-07 23:53:00
5:53 PM,34.0,23.0,64,30.16,10.0,SSE,8.1,-,N/A,,Clear,150,2013-02-08 00:53:00
6:53 PM,33.1,21.9,64,30.16,10.0,SSE,9.2,-,N/A,,Clear,160,2013-02-08 01:53:00
7:53 PM,33.1,21.0,61,30.14,10.0,Calm,Calm,-,N/A,,Clear,0,2013-02-08 02:53:00
8:53 PM,28.9,19.9,69,30.13,10.0,Calm,Calm,-,N/A,,Clear,0,2013-02-08 03:53:00
9:53 PM,32.0,21.0,64,30.09,10.0,South,5.8,-,N/A,,Clear,190,2013-02-08 04:53:00
10:53 PM,39.0,21.0,49,30.04,10.0,South,19.6,23.0,N/A,,Clear,170,2013-02-08 05:53:00
11:53 PM,37.9,19.9,48,30.02,10.0,South,20.7,-,N/A,,Clear,180,2013-02-08 06:53:00